Location: Black Creek
(40.9000°S, 175.5500°E)
Time: 02:38:56
(UTC+00:00)

ARIANE 5 R/B - Pass Details

Date: 04 August 2024
Orbit: 748 x 792 km, 98.8° (Epoch: 07 September)

Event Time Altitude Azimuth Distance (km) Brightness Sun altitude
Rises 17:52:44 0° 336° (NNW) 3,275 5.6 -16.8°
Reaches altitude 10° 17:55:41 10° 319° (NW) 2,351 4.7 -16.2°
Enters shadow 17:57:20 16° 302° (WNW) 1,970 4.2 -15.9°
